This demonstration page uses our WeatherBlox Daily Observations layout. Learn more.

Left ArrowRight Arrow

Hourly Observations for January 27, 2017

Temp ( °F °C ) Dew Point ( °F °C ) Humidity (%) Winds ( mph kmh ) Pressure ( in mb ) Visibility ( mi km ) Precip ( " mm )
12:52 am 00:52 Clear 27 -2.8 18 -7.8 69 69 WSW 8 13 30.17 1022 10 16 0.00 0.00
1:52 am 01:52 Clear 26 -3.3 18 -7.8 71 71 WSW 8 13 30.17 1022 10 16 0.00 0.00
2:52 am 02:52 Clear 25 -3.9 18 -7.8 75 75 WSW 7 11 30.16 1021 10 16 0.00 0.00
3:52 am 03:52 Clear 27 -2.8 19 -7.2 72 72 W 10 17 30.16 1021 10 16 0.00 0.00
4:52 am 04:52 Clear 27 -2.8 19 -7.2 72 72 W 9 15 30.16 1021 10 16 0.00 0.00
5:52 am 05:52 Clear 26 -3.3 18 -7.8 71 71 W 7 11 30.15 1021 10 16 0.00 0.00
6:52 am 06:52 Clear 26 -3.3 18 -7.8 71 71 W 8 13 30.16 1021 10 16 0.00 0.00
7:52 am 07:52 Sunny 27 -2.8 19 -7.2 72 72 W 13 20 30.16 1021 10 16 0.00 0.00
8:52 am 08:52 Sunny 29 -1.7 19 -7.2 66 66 WNW 15 24 30.16 1021 10 16 0.00 0.00
9:52 am 09:52 Partly Cloudy 31 -0.6 19 -7.2 61 61 WNW 15 24 30.18 1022 10 16 0.00 0.00
10:04 am 10:04 Mostly Cloudy 31 -0.6 19 -7.2 61 61 W 18 30 30.24 1024 10 16 0.00 0.00
10:52 am 10:52 Mostly Cloudy 31 -0.6 19 -7.2 61 61 WNW 14 22 30.21 1023 10 16 0.00 0.00
11:19 am 11:19 Partly Cloudy 34 1.1 20 -6.7 56 56 WNW 16 26 30.24 1024 10 16 0.00 0.00
11:52 am 11:52 Sunny 35 1.7 19 -7.2 52 52 WNW 12 19 30.20 1023 10 16 0.00 0.00
12:52 pm 12:52 Sunny 38 3.3 19 -7.2 46 46 WNW 13 20 30.17 1022 10 16 0.00 0.00
1:52 pm 13:52 Sunny 40 4.4 19 -7.2 43 43 WNW 12 19 30.15 1021 10 16 0.00 0.00
2:52 pm 14:52 Sunny 41 5 19 -7.2 41 41 W 18 30 30.15 1021 10 16 0.00 0.00
3:52 pm 15:52 Sunny 42 5.6 19 -7.2 40 40 W 20 31 30.14 1021 10 16 0.00 0.00
4:52 pm 16:52 Sunny 42 5.6 18 -7.8 38 38 W 14 22 30.13 1020 10 16 0.00 0.00
5:52 pm 17:52 Clear 38 3.3 19 -7.2 46 46 W 8 13 30.13 1020 10 16 0.00 0.00
6:52 pm 18:52 Clear 32 0 19 -7.2 59 59 SW 7 11 30.13 1020 10 16 0.00 0.00
7:52 pm 19:52 Clear 32 0 18 -7.8 56 56 WSW 8 13 30.11 1020 10 16 0.00 0.00
8:52 pm 20:52 Clear 33 0.6 18 -7.8 54 54 WSW 8 13 30.10 1019 10 16 0.00 0.00
9:52 pm 21:52 Clear 34 1.1 17 -8.3 50 50 WSW 9 15 30.09 1019 10 16 0.00 0.00
10:52 pm 22:52 Clear 37 2.8 16 -8.9 42 42 WSW 14 22 30.08 1019 10 16 0.00 0.00
11:52 pm 23:52 Clear 37 2.8 16 -8.9 42 42 WSW 15 24 30.06 1018 10 16 0.00 0.00

Powered by AerisWeather